FW4025 Weather Reports


time (UTC)temp
C
wind
direction
speed
KPH
gust
KPH
rain 1hr
cm
rain 24hr
cm
rain mn
cm
humidity
%
barometer
mb
20260506214510 23 290 3.2 9.7 0.00 0.00 0.00 45 1010.8
20260506213007 23 330 4.8 9.7 0.00 0.00 0.00 44 1010.8
20260506211503 23 178 3.2 9.7 0.00 0.00 0.00 46 1010.9
20260506210059 22 17 4.8 14.5 0.00 0.00 0.00 46 1011.2
20260506204556 21 325 8.0 12.9 0.00 0.00 0.00 46 1011.3
20260506203054 21 311 4.8 9.7 0.00 0.00 0.00 46 1011.6
20260506201555 21 325 6.4 12.9 0.00 0.00 0.00 47 1011.8
20260506200049 21 19 3.2 12.9 0.00 0.00 0.00 45 1011.9
20260506194547 20 325 3.2 14.5 0.00 0.00 0.00 45 1012.3
20260506193044 18 333 6.4 12.9 0.00 0.00 0.00 50 1012.4
20260506191537 18 105 6.4 11.3 0.00 0.00 0.00 56 1012.6
20260506190038 17 94 11.3 14.5 0.00 0.00 0.00 59 1013.0
20260506184535 17 120 8.0 14.5 0.00 0.00 0.00 58 1013.2
20260506183026 16 107 9.7 11.3 0.00 0.00 0.00 58 1013.4
20260506181522 16 104 9.7 12.9 0.00 0.00 0.00 59 1013.4
20260506180025 16 104 11.3 14.5 0.00 0.00 0.00 63 1013.1
20260506174513 15 105 9.7 12.9 0.00 0.00 0.00 63 1013.4
20260506173017 15 107 11.3 14.5 0.00 0.00 0.00 64 1013.6
20260506171505 15 106 12.9 14.5 0.00 0.00 0.00 64 1013.9
20260506170103 15 108 12.9 14.5 0.00 0.00 0.00 65 1014.1
20260506164606 14 105 12.9 16.1 0.00 0.00 0.00 67 1014.3
20260506163103 14 85 11.3 14.5 0.00 0.00 0.00 66 1014.4
20260506161558 13 99 12.9 16.1 0.00 0.00 0.00 68 1014.4
20260506160045 13 94 11.3 14.5 0.00 0.00 0.00 68 1014.6
20260506154545 12 97 12.9 16.1 0.00 0.00 0.00 68 1014.3
20260506153045 11 90 12.9 16.1 0.00 0.00 0.00 70 1014.3
20260506151538 11 86 12.9 14.5 0.00 0.00 0.00 70 1014.4
20260506150041 10 90 11.3 16.1 0.00 0.00 0.00 73 1014.5
20260506144541 10 77 12.9 16.1 0.00 0.00 0.00 73 1014.6
20260506143040 10 78 9.7 14.5 0.00 0.00 0.00 74 1014.5
20260506141535 10 78 12.9 17.7 0.00 0.00 0.00 74 1014.7
20260506140036 9 86 14.5 19.3 0.00 0.00 0.00 75 1014.7
20260506134535 8 84 12.9 19.3 0.00 0.00 0.00 80 1014.7
20260506133033 6 310 0.0 0.0 0.00 0.00 0.00 87 1014.6
20260506131544 6 242 0.0 0.0 0.00 0.00 0.00 86 1014.5
20260506130030 6 242 0.0 0.0 0.00 0.00 0.00 84 1014.5
20260506124527 6 242 0.0 0.0 0.00 0.00 0.00 83 1014.1
20260506123025 6 242 0.0 0.0 0.00 0.00 0.00 82 1014.0
20260506121522 6 242 0.0 0.0 0.00 0.00 0.00 81 1014.0
20260506120020 6 242 0.0 0.0 0.00 0.00 0.00 81 1013.9
20260506114517 6 242 0.0 0.0 0.00 0.00 0.00 80 1013.8
20260506113013 7 242 0.0 0.0 0.00 0.00 0.00 78 1013.9
20260506111620 7 242 0.0 0.0 0.00 0.00 0.00 76 1013.7
20260506110005 8 242 0.0 0.0 0.00 0.00 0.00 73 1013.6
20260506104502 8 242 0.0 0.0 0.00 0.00 0.00 69 1013.6
20260506103100 8 242 0.0 0.0 0.00 0.00 0.00 64 1013.6
20260506101605 9 242 0.0 0.0 0.00 0.00 0.00 65 1013.5
20260506100114 9 182 1.6 4.8 0.00 0.00 0.00 63 1013.4
20260506094551 10 211 3.2 4.8 0.00 0.00 0.00 61 1013.4
20260506093050 10 140 0.0 3.2 0.00 0.00 0.00 57 1013.5
20260506091544 11 94 1.6 14.5 0.00 0.00 0.00 54 1013.5
20260506090045 13 40 3.2 11.3 0.00 0.00 0.00 48 1013.3
20260506084604 13 21 4.8 14.5 0.00 0.00 0.00 46 1013.3
20260506083043 13 52 6.4 11.3 0.00 0.00 0.00 46 1013.3
20260506081546 13 54 4.8 12.9 0.00 0.00 0.00 47 1013.2
20260506073042 12 360 6.4 12.9 0.00 0.00 0.00 52 1012.8
20260506071531 11 285 0.0 4.8 0.00 0.00 0.00 60 1012.9
20260506061525 10 207 3.2 6.4 0.00 0.00 0.00 68 1012.3
20260506044545 10 312 0.0 3.2 0.00 0.00 0.00 71 1011.4
20260506043013 11 312 0.0 1.6 0.00 0.00 0.00 70 1011.0
20260506041509 11 312 1.6 4.8 0.00 0.00 0.00 67 1011.0
20260506040009 12 287 0.0 3.2 0.00 0.00 0.00 66 1011.1
20260506034518 12 287 0.0 4.8 0.00 0.00 0.00 60 1010.7
20260506033008 13 265 1.6 3.2 0.00 0.00 0.00 59 1010.5
20260506031507 14 265 0.0 3.2 0.00 0.00 0.00 54 1010.4
20260506030006 15 265 0.0 3.2 0.00 0.00 0.00 54 1010.3
20260506024506 16 316 3.2 6.4 0.00 0.00 0.00 52 1010.1
20260506023005 16 318 1.6 3.2 0.00 0.00 0.00 53 1010.0
20260506021505 17 300 0.0 4.8 0.00 0.00 0.00 49 1009.8
20260506020005 17 157 1.6 3.2 0.00 0.00 0.00 42 1009.8
20260506014504 18 127 1.6 3.2 0.00 0.00 0.00 41 1009.7
20260506013003 18 97 0.0 4.8 0.00 0.00 0.00 42 1009.7
20260506011501 18 120 0.0 3.2 0.00 0.00 0.00 37 1009.9
20260506010104 18 120 3.2 6.4 0.00 0.00 0.00 38 1010.1
20260506004629 19 111 3.2 9.7 0.00 0.00 0.00 37 1010.1
20260506003111 20 108 1.6 4.8 0.00 0.00 0.00 35 1010.3
20260506001558 20 84 3.2 6.4 0.00 0.00 0.00 36 1010.5
20260506000057 21 86 1.6 11.3 0.00 0.00 0.00 32 1010.6
20260505234625 21 103 9.7 14.5 0.00 0.00 0.00 37 1010.8
20260505233054 20 115 9.7 17.7 0.00 0.00 0.00 37 1010.8
20260505231553 21 117 11.3 19.3 0.00 0.00 0.00 40 1010.8
20260505230052 21 115 12.9 17.7 0.00 0.00 0.00 38 1011.1
20260505224552 21 122 11.3 20.9 0.00 0.00 0.00 35 1011.3
20260505223051 21 118 14.5 22.5 0.00 0.00 0.00 36 1011.3
20260505221549 21 95 16.1 25.7 0.00 0.00 0.00 34 1011.5
20260505220059 21 109 8.0 20.9 0.00 0.00 0.00 31 1011.8